Flag for Canada Weather past 2 weeks in Eureka, Nunavut, Canada

Now
46 °F

Partly sunny.


Feels Like: 41 °F
Forecast: 46 / 53 °F
Wind: 13 mph from Southeast

Location: Eureka

Current Time: Jul 29, 2015 at 2:05:58 AM

Latest Report: Jul 29, 2015 at 1:00 AM


Visibility: 15 mi

Pressure: 30.02 "Hg

Humidity: 82%

Dew point: 41 °F

Location of EurekaLocation

Historic Weather in Eureka — Graph

°F

Eureka temperature yesterday

Maximum temperature yesterday: 52 °F (at 3:00 PM)
Minimum temperature yesterday: 41 °F (at 6:00 AM)
Average temperature yesterday: 45 °F

Past Weeks' High & Low Weather Summary

 TemperatureHumidityPressure
High64 °F (Jul 17, 5:00 PM)93% (Jul 28, 10:00 AM)30.27 "Hg (Jul 28, 10:00 AM)
Low41 °F (Jul 14, 3:00 AM)30% (Jul 17, 5:00 PM)29.79 "Hg (Jul 27, 10:00 AM)
Average49 °F62%30.06 "Hg
* Reported Jul 14 1:00 AM — Jul 29 1:00 AM, Eureka, Weather by CustomWeather, © 2015

Note: Actual official high and low records may vary slightly from our data, if they occured in-between our weather recording intervals... More about our weather records

Advertising

Eureka weather history for previous 24 hours

 ConditionsComfort  
Time TempWeatherWind HumidityBarometerVisibility
1:00 AM
Wed, Jul 29
46 °FPartly sunny.13 mph82%30.02 "Hg15 mi
10:00 PM
Tue, Jul 28
43 °FBroken clouds.9 mph87%30.00 "Hg15 mi
9:00 PM46 °FScattered clouds.10 mph82%29.98 "Hg15 mi
7:00 PM46 °FPartly sunny.10 mph82%29.97 "Hg15 mi
6:00 PM48 °FPartly sunny.9 mph76%29.96 "Hg15 mi
5:00 PM48 °FBroken clouds.8 mph76%29.96 "Hg15 mi
4:00 PM46 °FPartly sunny.10 mph76%29.95 "Hg15 mi
3:00 PM52 °FBroken clouds.7 mph67%29.93 "Hg15 mi
2:00 PM48 °FPartly sunny.8 mph76%29.93 "Hg15 mi
1:00 PM46 °FMostly cloudy.7 mph76%29.93 "Hg15 mi
12:00 PM43 °FMostly cloudy.6 mph81%29.93 "Hg15 mi
11:00 AM41 °FOvercast.6 mph87%29.91 "Hg15 mi
10:00 AM41 °FLight rain. Overcast.2 mph93%29.90 "Hg15 mi
9:00 AM41 °FLight rain. Overcast.6 mph87%29.90 "Hg15 mi
8:00 AM41 °FPartly sunny.6 mph87%29.89 "Hg15 mi
7:00 AM41 °FPartly sunny.6 mph87%29.88 "Hg15 mi
6:00 AM41 °FPartly sunny.5 mph87%29.87 "Hg15 mi
5:00 AM45 °FPartly sunny.5 mph81%29.87 "Hg15 mi
4:00 AM46 °FPartly sunny.3 mph71%29.85 "Hg15 mi
3:00 AM46 °FPartly sunny.6 mph71%29.85 "Hg15 mi
2:00 AM46 °FPartly sunny.2 mph71%29.84 "Hg15 mi
Weather by CustomWeather, © 2015

See weather overviewHow to use our weather pages